Погода в Охе

Погода в Охе : погода сейчас, прогноз погоды и архив. Всё, что Вы хотите узнать о погоде в Охе!

Хотите узнать прогноз погоды в Охе? Тогда Вам сюда: Погода в Охе

Поиск расширенной информации на нашем сайте:

Другие новости

Новости СМИ2

Главная страница сайта

Новости сайта

03.07.2017

Напоминаем, что на нашем специализированном сайте Метеоцентр.Азия вы можете получить высокодетализированные автоматические прогнозы погоды по пунктам России, СНГ и мира в авиационном формате (включающие направление и скорость ветра, видимость, явления погоды, количество и форму облачности, нижнюю и верхнюю границу облачности).


Погода в Охе - сегодня

Время (UTC), дата Ветер
(°,м/с) 
Видим.   Явления Облачность Т
(°С)
Тd
(°С)
f(%) Тe
(°С)
Pmin
(гПа)
dP
(гПа)
Po
(мм)
O2
(г/м3)
Тmin Tmax R s Состояние
почвы
00 14.06.18 100 (В) 3-5{07}  20000 м  {туман}  10/10 240 м 
[St]
+6.6 +3.7 82 +6  1021.6  0.1  763  300           
09 14.06.18 120 (ЮВ) 5-8{08}  20000 м    5/3 200 м верхняя 
[St|Ci fib]
+5.7 +2.3 79 +4  1021.4  0.3  763  301    +11.7       
12 14.06.18 130 (ЮВ) 5-8{09}  4000 м  дымка  10/10 100 м 
[St]
+2.4 +2 97 1022.2  0.7  763  304           
21 14.06.18 140 (ЮВ) 6-8{11}  20000 м    10/10 150 м 
[St]
+3.8 +2.7 93 +1  1021.6  -0.3  763  303  +2.3        сухая 
09 15.06.18 150 (ЮВ) 5-8{11}  20000 м    9/0 средняя 
[Ac trans]
+8.4 +3.7 72 +7  1017.3  -0.7  760  296    +16.8       
21 15.06.18 120 (ЮВ) 1-2{04}  20000 м    9/0 средняя 
[Ac trans]
+5.1 +2.4 83 +6  1015  0.1  758  299  +0.6        сухая 
00 16.06.18 210 (ЮЗ) 3-5{06}  20000 м    9/0 средняя 
[Ac trans]
+14.2 +3.8 50 +14  1014  -0.9  757  289           
09 16.06.18 320 (СЗ) 1-2{06}  20000 м    8/3 300 м кучево-дожд., средняя 
[Cb cap|Ac trans]
+16.8 +6.5 51 +18  1011.3  -0.6  755  286    +19.4       
21 16.06.18 150 (ЮВ) 3-6{06}  20000 м    8/0 средняя, верхняя 
[Ac trans|Ci sp]
+9.9 +4.1 67 +9  1010.5  0.1  754  293  +4.1        сухая 
09 17.06.18 140 (ЮВ) 6-10{12}  20000 м    9/6 270 м верхняя 
[St|Ci sp]
+5.9 +3.1 82 +4  1009.4  0.8  754  297    +16.1       
21 17.06.18 120 (ЮВ) 4-7{08}  4000 м  слаб. ливневой дождь  10/10 150 м кучево-дожд. 
[Cb cap]
+3.6 +3.3 98 +2  1009.1  0.1  753  299  +3.2    0.0    влажная 
00 18.06.18 120 (ЮВ) 4-6{07}  20000 м  в посл. час ливневой дождь  10/10 180 м кучево-дожд. 
[Cb cap]
+4.5 +4.4 99 +3  1008.8  -0.3  753  298           
09 18.06.18 130 (ЮВ) 5-7{08}  20000 м    10/10 150 м 
[St]
+5.2 +4.5 95 +3  1008.5  0.7  753  297    +9.4     
12 18.06.18 130 (ЮВ) 4-7{07}  4000 м  дымка  10/10 120 м 
[St]
+4.4 +4 97 +3  1009  0.5  753  298           
21 18.06.18 140 (ЮВ) 3-5{06}  20000 м    10/10 150 м кучево-дожд. 
[Cb cap]
+4.8 +4.5 98 +4  1008.8  753  297  +4      влажная 
00 19.06.18 110 (В) 4-6{07}  4000 м  слаб. ливневой дождь  10/10 120 м кучево-дожд. 
[Cb cap]
+5.8 +5.4 97 +4  1008.4  -0.3  753  296           
09 19.06.18 140 (ЮВ) 5-9{10}  2000 м  ливневой дождь  10/10 100 м кучево-дожд. 
[Cb cap]
+6 +5.8 99 +4  1006  -0.3  751  295    +6.2     
12 19.06.18 130 (ЮВ) 5-7{10}  20000 м  в посл. час ливневой дождь  10/10 150 м кучево-дожд. 
[Cb cap]
+6.1 +5.9 99 +4  1005.4  -0.6  751  295           
21 19.06.18 140 (ЮВ) 5-8{10}  4000 м  дымка  10/10 100 м 
[St]
+5.7 +5.5 99 +4  1003.5  0.1  749  295  +4.9      влажная 
00 20.06.18 140 (ЮВ) 3-5{08}  20000 м  в посл. час ливневой дождь  10/10 150 м кучево-дожд. 
[Cb cap]
+8.9 +8.4 97 +8  1003.8  0.4  749  291           
09 20.06.18 160 (Ю) 3-5{06}  4000 м  дымка  10/10 100 м кучево-дожд. 
[Cb cap]
+10.5 +10.1 97 +11  1004.3  0.4  750  289    +12.7     
12 20.06.18 150 (ЮВ) 3-4{05}  4000 м  дымка  10/10 150 м кучево-дожд. 
[Cb cap]
+10 +9.7 98 +11  1004.8  0.4  750  290           
21 20.06.18 100 (В) 2-4{06}  20000 м  в посл. час ливневой дождь  10/10 120 м кучево-дожд. 
[Cb cap]
+5.2 +5 99 +5  1003.1  -0.5  749  295  +5.1      влажная 
00 21.06.18 140 (ЮВ) 4-6{07}  20000 м  слаб. ливневой дождь  10/10 120 м кучево-дожд. 
[Cb cap]
+7.1 +6.7 97 +6  1002.3  -0.7  748  293           
09 21.06.18 140 (ЮВ) 6-9{12}  20000 м  слаб. ливневой дождь  10/10 120 м кучево-дожд. 
[Cb cap]
+5.9 +5.5 97 +4  1001.9  0.1  748  294    +9.8     
Время (UTC), дата Ветер
(°,м/с) 
Видим.   Явления Облачность Т
(°С)
Тd
(°С)
f(%) Тe
(°С)
Pmin
(гПа)
dP
(гПа)
Po
(мм)
O2
(г/м3)
Тmin Tmax R s Состояние
почвы

Для получения пояснительной информации подведите курсор к названию столбца.

ПОГОДА в Охе - архив

Всё, что Вы хотите узнать о погоде в Охе - удобно и подробно!

Выберите нужную дату (начиная с 1 января 2015* года) и нажмите кнопку "Найти".
Будут отображены архивные сводки погоды по пункту Оха, начиная с указанной даты.


Отображать данные в формате CSV (для использования в таблицах Excel)


Внимание! Наш архив погоды предназначен исключительно для личного некоммерческого использования в познавательных целях. Если Вам необходимы официальные справки о состоянии погоды (для производственных, юридических, коммерческих и т.п. целей), обращайтесь в органы Росгидромета.

*Примечание: данная дата относится к архиву по метеостанциям СССР (Россия, СНГ, Балтия).
Архив по метеостанциям Зарубежной Европы и Азии (кроме Китая) хранится 10 дней, по другим регионам земного шара (Китай, Африка, Америка, Австралия, Океания) - 1 день.

Оха - район местоположения метеостанции


Название, широта, долгота, высота метеостанции:
Оха 53.6°ш. 142.9°д. 8 м над ур. моря [Российская Федерация]

Дополнительная информация

В oтличие oт бoльшинства пoгoдных сайтoв мы публикуем пoдрoбную метеoинфoрмацию в детальнoм прoфессиoнальнoм фoрмате.

Характеристики температуры и влажнoсти вoздуха измеряются на высoте 2 м в тени вдали oт зданий и деревьев.
Скoрoсть ветра измеряется на высoте 10 м (на урoвне рoста челoвека скoрoсть ветра ниже в 1.5-2 раза). Если метеoстанция нахoдится в гoрoде или в лесу, тo скoрoсть ветра занижена на 2-4 м/с пo сравнению с oткрытым местoм. Скoрoсть ветра над акватoриями крупных рек и oзёр, а также на вершинах хoлмoв на 2-5 м/с выше, чем в oбычных услoвиях.
Атмoсфернoе давление в разных тoчках местнoсти мoжет значительнo oтличаться oт давления на метеoстанции, в зависимoсти oт услoвий рельефа (при пoдъёме на 10 м давление пoнижается примернo на 1 мм рт.ст.).